Time,TemperatureF,DewpointF,PressureIn,WindDirection,WindDirectionDegrees,WindSpeedMPH,WindSpeedGustMPH,Humidity,HourlyPrecipIn,Conditions,Clouds,dailyrainin,SoftwareType,DateUTC
2013-05-11 00:01:00,68.4,66.9,30.01,SW,231,9.0,13.0,95,0.00,,---,0.00,VWS V14.01,2013-05-11 04:01:00,
2013-05-11 00:06:00,68.3,66.8,30.02,SW,232,10.0,12.0,95,0.00,,---,0.00,VWS V14.01,2013-05-11 04:06:00,
2013-05-11 00:11:00,68.2,66.7,30.01,SW,233,7.0,10.0,95,0.00,,---,0.00,VWS V14.01,2013-05-11 04:11:00,
2013-05-11 00:16:00,68.2,66.7,30.01,SW,232,8.0,10.0,95,0.00,,---,0.00,VWS V14.01,2013-05-11 04:16:00,
2013-05-11 00:21:00,68.2,66.7,30.01,WSW,244,7.0,9.0,95,0.00,,---,0.00,VWS V14.01,2013-05-11 04:21:00,
2013-05-11 00:26:00,68.2,66.7,30.01,SW,231,7.0,9.0,95,0.00,,---,0.00,VWS V14.01,2013-05-11 04:26:00,
2013-05-11 00:31:00,68.2,66.7,30.01,SW,235,7.0,9.0,95,0.00,,---,0.00,VWS V14.01,2013-05-11 04:31:00,
2013-05-11 00:36:00,68.3,66.8,30.01,SW,230,9.0,9.0,95,0.00,,---,0.00,VWS V14.01,2013-05-11 04:36:00,
2013-05-11 00:41:00,68.4,66.9,30.01,SW,220,10.0,11.0,95,0.00,,---,0.00,VWS V14.01,2013-05-11 04:41:00,
2013-05-11 00:46:00,68.3,66.5,30.01,SW,225,9.0,11.0,94,0.00,,---,0.00,VWS V14.01,2013-05-11 04:46:00,
2013-05-11 00:51:00,68.2,66.4,30.01,SW,229,9.0,10.0,94,0.00,,---,0.00,VWS V14.01,2013-05-11 04:51:00,
2013-05-11 00:56:00,68.1,66.3,30.01,SW,219,8.0,10.0,94,0.00,,---,0.00,VWS V14.01,2013-05-11 04:56:00,
2013-05-11 01:01:00,68.1,66.3,30.01,SW,224,7.0,9.0,94,0.00,,---,0.00,VWS V14.01,2013-05-11 05:01:00,
2013-05-11 01:06:00,68.1,66.3,30.01,SW,223,10.0,10.0,94,0.00,,---,0.00,VWS V14.01,2013-05-11 05:06:00,
2013-05-11 01:11:00,68.1,66.3,30.01,SW,223,11.0,11.0,94,0.00,,---,0.00,VWS V14.01,2013-05-11 05:11:00,
2013-05-11 01:16:00,68.1,66.6,30.00,SW,226,10.0,11.0,95,0.00,,---,0.00,VWS V14.01,2013-05-11 05:16:00,
2013-05-11 01:21:00,68.1,66.6,30.00,SW,223,10.0,11.0,95,0.00,,---,0.00,VWS V14.01,2013-05-11 05:21:00,
2013-05-11 01:26:00,68.2,66.7,30.00,SW,218,11.0,12.0,95,0.00,,---,0.00,VWS V14.01,2013-05-11 05:26:00,
2013-05-11 01:31:00,68.3,66.8,30.00,SW,215,11.0,12.0,95,0.00,,---,0.00,VWS V14.01,2013-05-11 05:31:00,
2013-05-11 01:36:00,68.3,66.8,30.00,SW,222,10.0,12.0,95,0.00,,---,0.00,VWS V14.01,2013-05-11 05:36:00,
2013-05-11 01:41:00,68.2,66.7,30.00,SW,218,9.0,11.0,95,0.00,,---,0.00,VWS V14.01,2013-05-11 05:41:00,
2013-05-11 01:46:00,68.3,66.8,29.99,SW,223,10.0,10.0,95,0.00,,---,0.00,VWS V14.01,2013-05-11 05:46:00,
2013-05-11 01:51:00,68.4,66.9,29.99,SW,223,9.0,11.0,95,0.00,,---,0.00,VWS V14.01,2013-05-11 05:51:00,
2013-05-11 01:56:00,68.4,66.9,29.99,SW,225,10.0,12.0,95,0.00,,---,0.00,VWS V14.01,2013-05-11 05:56:00,
2013-05-11 02:01:00,68.3,66.8,29.98,SW,222,8.0,11.0,95,0.00,,---,0.00,VWS V14.01,2013-05-11 06:01:00,
2013-05-11 02:06:00,68.3,66.8,29.98,SW,225,8.0,10.0,95,0.00,,---,0.00,VWS V14.01,2013-05-11 06:06:00,
2013-05-11 02:11:00,68.3,66.8,29.98,SW,218,8.0,9.0,95,0.00,,---,0.00,VWS V14.01,2013-05-11 06:11:00,
2013-05-11 02:16:00,68.2,66.7,29.98,SW,217,8.0,9.0,95,0.00,,---,0.00,VWS V14.01,2013-05-11 06:16:00,
2013-05-11 02:21:00,68.1,66.6,29.98,SW,223,9.0,9.0,95,0.00,,---,0.00,VWS V14.01,2013-05-11 06:21:00,
2013-05-11 02:26:00,68.0,66.5,29.98,SW,224,7.0,9.0,95,0.00,,---,0.00,VWS V14.01,2013-05-11 06:26:00,
2013-05-11 02:31:00,68.0,66.5,29.98,SW,220,7.0,10.0,95,0.00,,---,0.00,VWS V14.01,2013-05-11 06:31:00,
2013-05-11 02:36:00,67.9,66.4,29.98,SSW,210,9.0,10.0,95,0.00,,---,0.00,VWS V14.01,2013-05-11 06:36:00,
2013-05-11 02:41:00,67.9,66.4,29.97,SW,215,9.0,9.0,95,0.00,,---,0.00,VWS V14.01,2013-05-11 06:41:00,
2013-05-11 02:46:00,67.9,66.4,29.97,SSW,206,9.0,10.0,95,0.00,,---,0.00,VWS V14.01,2013-05-11 06:46:00,
2013-05-11 02:51:00,68.0,66.5,29.97,SW,214,8.0,11.0,95,0.00,,---,0.00,VWS V14.01,2013-05-11 06:51:00,
2013-05-11 02:56:00,68.1,66.6,29.98,SW,216,10.0,13.0,95,0.00,,---,0.00,VWS V14.01,2013-05-11 06:56:00,
2013-05-11 03:01:00,68.2,66.7,29.98,SW,215,12.0,13.0,95,0.00,,---,0.00,VWS V14.01,2013-05-11 07:01:00,
2013-05-11 03:06:00,68.2,66.7,29.98,SW,220,11.0,13.0,95,0.00,,---,0.00,VWS V14.01,2013-05-11 07:06:00,
2013-05-11 03:11:00,68.1,66.6,29.98,SW,220,11.0,13.0,95,0.00,,---,0.00,VWS V14.01,2013-05-11 07:11:00,
2013-05-11 03:16:00,68.0,66.5,29.98,SW,215,10.0,12.0,95,0.00,,---,0.00,VWS V14.01,2013-05-11 07:16:00,
2013-05-11 03:21:00,68.0,66.5,29.98,SW,223,11.0,12.0,95,0.00,,---,0.00,VWS V14.01,2013-05-11 07:21:00,
2013-05-11 03:26:00,67.9,66.4,29.98,SW,225,11.0,12.0,95,0.00,,---,0.00,VWS V14.01,2013-05-11 07:26:00,
2013-05-11 03:31:00,67.9,66.4,29.98,SW,223,11.0,12.0,95,0.00,,---,0.00,VWS V14.01,2013-05-11 07:31:00,
2013-05-11 03:36:00,67.9,66.4,29.98,SW,230,13.0,13.0,95,0.00,,---,0.00,VWS V14.01,2013-05-11 07:36:00,
2013-05-11 03:41:00,68.0,66.5,29.98,SW,223,13.0,13.0,95,0.00,,---,0.00,VWS V14.01,2013-05-11 07:41:00,
2013-05-11 03:46:00,68.0,66.5,29.97,SW,221,12.0,13.0,95,0.00,,---,0.00,VWS V14.01,2013-05-11 07:46:00,
2013-05-11 03:51:00,68.0,66.5,29.97,SW,225,11.0,13.0,95,0.00,,---,0.00,VWS V14.01,2013-05-11 07:51:00,
2013-05-11 03:56:00,68.0,66.5,29.97,SW,225,12.0,13.0,95,0.00,,---,0.00,VWS V14.01,2013-05-11 07:56:00,
2013-05-11 04:01:00,68.1,66.6,29.97,SW,222,11.0,13.0,95,0.00,,---,0.00,VWS V14.01,2013-05-11 08:01:00,
2013-05-11 04:06:00,68.1,66.6,29.97,SW,219,13.0,13.0,95,0.00,,---,0.00,VWS V14.01,2013-05-11 08:06:00,
2013-05-11 04:11:00,68.1,66.6,29.97,SW,230,11.0,13.0,95,0.00,,---,0.00,VWS V14.01,2013-05-11 08:11:00,
2013-05-11 04:16:00,68.2,66.4,29.97,SW,223,13.0,13.0,94,0.00,,---,0.00,VWS V14.01,2013-05-11 08:16:00,
2013-05-11 04:21:00,68.1,66.3,29.97,SW,226,12.0,13.0,94,0.00,,---,0.00,VWS V14.01,2013-05-11 08:21:00,
2013-05-11 04:26:00,68.2,66.4,29.97,SW,227,12.0,13.0,94,0.00,,---,0.00,VWS V14.01,2013-05-11 08:26:00,
2013-05-11 04:31:00,68.2,66.4,29.97,SW,227,10.0,13.0,94,0.00,,---,0.00,VWS V14.01,2013-05-11 08:31:00,
2013-05-11 04:36:00,68.2,66.4,29.97,SW,221,15.0,15.0,94,0.00,,---,0.00,VWS V14.01,2013-05-11 08:36:00,
2013-05-11 04:41:00,68.3,66.5,29.97,SW,227,11.0,14.0,94,0.00,,---,0.00,VWS V14.01,2013-05-11 08:41:00,
2013-05-11 04:46:00,68.2,66.4,29.97,SW,227,12.0,14.0,94,0.00,,---,0.00,VWS V14.01,2013-05-11 08:46:00,
2013-05-11 04:51:00,68.3,66.2,29.96,SW,221,14.0,14.0,93,0.00,,---,0.00,VWS V14.01,2013-05-11 08:51:00,
2013-05-11 04:56:00,68.3,66.2,29.96,SW,217,15.0,16.0,93,0.00,,---,0.00,VWS V14.01,2013-05-11 08:56:00,
2013-05-11 05:01:00,68.4,66.3,29.96,SW,225,12.0,16.0,93,0.00,,---,0.00,VWS V14.01,2013-05-11 09:01:00,
2013-05-11 05:06:00,68.3,66.2,29.96,SW,225,12.0,14.0,93,0.00,,---,0.00,VWS V14.01,2013-05-11 09:06:00,
2013-05-11 05:11:00,68.2,66.1,29.96,SW,222,10.0,13.0,93,0.00,,---,0.00,VWS V14.01,2013-05-11 09:11:00,
2013-05-11 05:16:00,68.2,66.1,29.96,SW,227,12.0,14.0,93,0.00,,---,0.00,VWS V14.01,2013-05-11 09:16:00,
2013-05-11 05:21:00,68.3,66.2,29.96,SW,223,11.0,12.0,93,0.00,,---,0.00,VWS V14.01,2013-05-11 09:21:00,
2013-05-11 05:26:00,68.3,66.2,29.96,SW,227,10.0,12.0,93,0.00,,---,0.00,VWS V14.01,2013-05-11 09:26:00,
2013-05-11 05:31:00,68.3,66.2,29.96,SW,229,11.0,13.0,93,0.00,,---,0.00,VWS V14.01,2013-05-11 09:31:00,
2013-05-11 05:36:00,68.4,66.3,29.96,SW,229,10.0,13.0,93,0.00,,---,0.00,VWS V14.01,2013-05-11 09:36:00,
2013-05-11 05:41:00,68.4,66.0,29.96,SW,229,11.0,14.0,92,0.00,,---,0.00,VWS V14.01,2013-05-11 09:41:00,
2013-05-11 05:46:00,68.4,66.3,29.96,SW,225,11.0,14.0,93,0.00,,---,0.00,VWS V14.01,2013-05-11 09:46:00,
2013-05-11 05:51:00,68.4,66.3,29.97,SW,232,10.0,13.0,93,0.00,,---,0.00,VWS V14.01,2013-05-11 09:51:00,
2013-05-11 05:56:00,68.4,66.3,29.97,SW,225,11.0,12.0,93,0.00,,---,0.00,VWS V14.01,2013-05-11 09:56:00,
2013-05-11 06:01:00,68.3,66.2,29.97,SW,229,12.0,12.0,93,0.00,,---,0.00,VWS V14.01,2013-05-11 10:01:00,
2013-05-11 06:06:00,68.3,66.2,29.97,SW,225,12.0,13.0,93,0.00,,---,0.00,VWS V14.01,2013-05-11 10:06:00,
2013-05-11 06:11:00,68.2,66.1,29.97,SW,223,11.0,12.0,93,0.00,,---,0.00,VWS V14.01,2013-05-11 10:11:00,
2013-05-11 06:16:00,68.2,66.1,29.97,SW,221,12.0,13.0,93,0.00,,---,0.00,VWS V14.01,2013-05-11 10:16:00,
2013-05-11 06:21:00,68.2,66.1,29.97,SW,225,12.0,13.0,93,0.00,,---,0.00,VWS V14.01,2013-05-11 10:21:00,
2013-05-11 06:26:00,68.2,66.1,29.98,SW,220,12.0,12.0,93,0.00,,---,0.00,VWS V14.01,2013-05-11 10:26:00,
2013-05-11 06:31:00,68.1,66.0,29.98,SW,226,10.0,12.0,93,0.00,,---,0.00,VWS V14.01,2013-05-11 10:31:00,
2013-05-11 06:36:00,68.0,65.9,29.98,SW,226,8.0,11.0,93,0.00,,---,0.00,VWS V14.01,2013-05-11 10:36:00,
2013-05-11 06:41:00,67.9,65.8,29.98,SW,235,7.0,10.0,93,0.00,,---,0.00,VWS V14.01,2013-05-11 10:41:00,
2013-05-11 06:46:00,67.8,65.7,29.98,SW,230,7.0,9.0,93,0.00,,---,0.00,VWS V14.01,2013-05-11 10:46:00,
2013-05-11 06:51:00,67.8,66.0,29.98,SW,230,8.0,9.0,94,0.00,,---,0.00,VWS V14.01,2013-05-11 10:51:00,
2013-05-11 06:56:00,67.7,65.9,29.98,WSW,242,6.0,8.0,94,0.00,,---,0.00,VWS V14.01,2013-05-11 10:56:00,
2013-05-11 07:01:00,67.7,65.9,29.98,SW,230,7.0,9.0,94,0.00,,---,0.00,VWS V14.01,2013-05-11 11:01:00,
2013-05-11 07:06:00,67.8,66.0,29.97,SW,224,8.0,10.0,94,0.00,,---,0.00,VWS V14.01,2013-05-11 11:06:00,
2013-05-11 07:11:00,67.7,65.9,29.97,SW,224,9.0,10.0,94,0.00,,---,0.00,VWS V14.01,2013-05-11 11:11:00,
2013-05-11 07:16:00,67.7,65.9,29.97,SW,222,9.0,10.0,94,0.00,,---,0.00,VWS V14.01,2013-05-11 11:16:00,
2013-05-11 07:21:00,67.7,65.9,29.97,SW,228,8.0,10.0,94,0.00,,---,0.00,VWS V14.01,2013-05-11 11:21:00,
2013-05-11 07:26:00,67.6,65.8,29.97,SW,225,8.0,9.0,94,0.00,,---,0.00,VWS V14.01,2013-05-11 11:26:00,
2013-05-11 07:30:00,67.6,65.8,29.97,SW,225,7.0,8.0,94,0.00,,---,0.00,VWS V14.01,2013-05-11 11:30:00,
2013-05-11 07:35:00,67.5,65.7,29.97,SW,233,4.0,9.0,94,0.00,,---,0.00,VWS V14.01,2013-05-11 11:35:00,
2013-05-11 07:40:00,67.4,65.6,29.97,WSW,253,5.0,6.0,94,0.00,,---,0.00,VWS V14.01,2013-05-11 11:40:00,
2013-05-11 07:45:00,67.5,65.7,29.97,West,267,5.0,6.0,94,0.00,,---,0.00,VWS V14.01,2013-05-11 11:45:00,
2013-05-11 07:50:00,67.7,65.9,29.97,West,270,6.0,6.0,94,0.00,,---,0.00,VWS V14.01,2013-05-11 11:50:00,
2013-05-11 07:55:00,67.9,66.1,29.98,West,265,7.0,8.0,94,0.00,,---,0.00,VWS V14.01,2013-05-11 11:55:00,
2013-05-11 08:00:00,68.0,66.2,29.97,WSW,253,8.0,9.0,94,0.00,,---,0.00,VWS V14.01,2013-05-11 12:00:00,
2013-05-11 08:05:00,67.9,66.1,29.97,WSW,241,5.0,8.0,94,0.00,,---,0.00,VWS V14.01,2013-05-11 12:05:00,
2013-05-11 08:10:00,67.9,66.1,29.97,WSW,240,4.0,6.0,94,0.00,,---,0.00,VWS V14.01,2013-05-11 12:10:00,
2013-05-11 08:15:00,67.9,66.1,29.97,WSW,244,4.0,5.0,94,0.00,,---,0.00,VWS V14.01,2013-05-11 12:15:00,
2013-05-11 08:20:00,67.9,66.1,29.97,WSW,242,4.0,5.0,94,0.00,,---,0.00,VWS V14.01,2013-05-11 12:20:00,
2013-05-11 08:25:00,67.8,66.0,29.97,WSW,238,2.0,3.0,94,0.00,,---,0.00,VWS V14.01,2013-05-11 12:25:00,
2013-05-11 08:30:00,67.6,65.8,29.97,SW,232,3.0,5.0,94,0.00,,---,0.00,VWS V14.01,2013-05-11 12:30:00,
2013-05-11 08:35:00,67.7,65.9,29.97,SW,232,5.0,6.0,94,0.00,,---,0.00,VWS V14.01,2013-05-11 12:35:00,
2013-05-11 08:40:00,67.9,66.1,29.97,SW,226,8.0,10.0,94,0.00,,---,0.00,VWS V14.01,2013-05-11 12:40:00,
2013-05-11 08:45:00,68.1,66.3,29.96,SW,218,10.0,13.0,94,0.00,,---,0.00,VWS V14.01,2013-05-11 12:45:00,
2013-05-11 08:50:00,68.2,66.4,29.96,SW,219,8.0,11.0,94,0.00,,---,0.00,VWS V14.01,2013-05-11 12:50:00,
2013-05-11 08:55:00,68.3,66.5,29.96,SW,223,10.0,12.0,94,0.00,,---,0.00,VWS V14.01,2013-05-11 12:55:00,
2013-05-11 09:00:00,68.4,66.6,29.96,SW,229,11.0,12.0,94,0.00,,---,0.00,VWS V14.01,2013-05-11 13:00:00,
2013-05-11 09:05:00,68.4,66.6,29.96,SW,233,9.0,10.0,94,0.00,,---,0.00,VWS V14.01,2013-05-11 13:05:00,
2013-05-11 09:10:00,68.4,66.6,29.96,SW,232,9.0,10.0,94,0.00,,---,0.00,VWS V14.01,2013-05-11 13:10:00,
2013-05-11 09:15:00,68.4,66.6,29.96,SW,226,9.0,11.0,94,0.00,,---,0.00,VWS V14.01,2013-05-11 13:15:00,
2013-05-11 09:20:00,68.5,66.7,29.96,SW,226,10.0,11.0,94,0.00,,---,0.00,VWS V14.01,2013-05-11 13:20:00,
2013-05-11 09:25:00,68.5,66.7,29.95,SW,224,10.0,11.0,94,0.00,,---,0.00,VWS V14.01,2013-05-11 13:25:00,
2013-05-11 09:30:00,68.6,66.5,29.95,SW,224,9.0,12.0,93,0.00,,---,0.00,VWS V14.01,2013-05-11 13:30:00,
2013-05-11 09:35:00,68.6,66.5,29.95,SW,225,10.0,12.0,93,0.00,,---,0.00,VWS V14.01,2013-05-11 13:35:00,
2013-05-11 09:40:00,68.6,66.5,29.95,SW,219,11.0,13.0,93,0.00,,---,0.00,VWS V14.01,2013-05-11 13:40:00,
2013-05-11 09:45:00,68.6,66.5,29.95,SW,216,10.0,12.0,93,0.00,,---,0.00,VWS V14.01,2013-05-11 13:45:00,
2013-05-11 09:50:00,68.6,66.5,29.95,SW,224,10.0,11.0,93,0.00,,---,0.00,VWS V14.01,2013-05-11 13:50:00,
2013-05-11 09:55:00,68.6,66.5,29.95,SW,221,10.0,12.0,93,0.00,,---,0.00,VWS V14.01,2013-05-11 13:55:00,
2013-05-11 10:00:00,68.5,66.4,29.94,SW,221,10.0,12.0,93,0.00,,---,0.00,VWS V14.01,2013-05-11 14:00:00,
2013-05-11 10:05:00,68.6,66.5,29.94,SW,222,10.0,11.0,93,0.00,,---,0.00,VWS V14.01,2013-05-11 14:05:00,
2013-05-11 10:10:00,68.6,66.8,29.94,SW,224,11.0,12.0,94,0.00,,---,0.00,VWS V14.01,2013-05-11 14:10:00,
2013-05-11 10:15:00,68.6,66.8,29.94,SW,225,9.0,11.0,94,0.00,,---,0.00,VWS V14.01,2013-05-11 14:15:00,
2013-05-11 10:20:00,68.7,66.9,29.94,SW,223,10.0,11.0,94,0.00,,---,0.00,VWS V14.01,2013-05-11 14:20:00,
2013-05-11 10:25:00,68.6,66.5,29.94,SW,221,9.0,10.0,93,0.00,,---,0.00,VWS V14.01,2013-05-11 14:25:00,
2013-05-11 10:30:00,68.6,66.5,29.94,SW,217,9.0,11.0,93,0.00,,---,0.00,VWS V14.01,2013-05-11 14:30:00,
2013-05-11 10:35:00,68.6,66.5,29.94,SW,219,11.0,11.0,93,0.00,,---,0.00,VWS V14.01,2013-05-11 14:35:00,
2013-05-11 10:40:00,68.6,66.8,29.94,SW,216,8.0,10.0,94,0.00,,---,0.00,VWS V14.01,2013-05-11 14:40:00,
2013-05-11 10:45:00,68.7,66.9,29.94,SW,223,8.0,10.0,94,0.00,,---,0.00,VWS V14.01,2013-05-11 14:45:00,
2013-05-11 10:50:00,68.7,66.9,29.94,SW,217,10.0,11.0,94,0.00,,---,0.00,VWS V14.01,2013-05-11 14:50:00,
2013-05-11 10:55:00,68.8,67.0,29.94,SW,221,10.0,10.0,94,0.00,,---,0.00,VWS V14.01,2013-05-11 14:55:00,
2013-05-11 11:00:00,68.8,67.0,29.94,SW,220,10.0,10.0,94,0.00,,---,0.00,VWS V14.01,2013-05-11 15:00:00,
2013-05-11 11:05:00,69.0,67.2,29.94,SW,219,10.0,11.0,94,0.00,,---,0.00,VWS V14.01,2013-05-11 15:05:00,
2013-05-11 11:10:00,69.2,67.1,29.94,SW,215,9.0,12.0,93,0.00,,---,0.00,VWS V14.01,2013-05-11 15:10:00,
2013-05-11 11:15:00,69.2,67.1,29.94,SSW,213,9.0,11.0,93,0.00,,---,0.00,VWS V14.01,2013-05-11 15:15:00,
2013-05-11 11:20:00,69.1,67.0,29.94,SSW,208,7.0,9.0,93,0.00,,---,0.00,VWS V14.01,2013-05-11 15:20:00,
2013-05-11 11:25:00,69.0,66.9,29.94,South,188,9.0,9.0,93,0.00,,---,0.00,VWS V14.01,2013-05-11 15:25:00,
2013-05-11 11:30:00,69.2,67.4,29.93,SSW,194,10.0,10.0,94,0.00,,---,0.00,VWS V14.01,2013-05-11 15:30:00,
2013-05-11 11:35:00,69.6,67.8,29.93,South,190,9.0,12.0,94,0.00,,---,0.00,VWS V14.01,2013-05-11 15:35:00,
2013-05-11 11:40:00,69.8,67.7,29.92,SSW,195,7.0,12.0,93,0.00,,---,0.00,VWS V14.01,2013-05-11 15:40:00,
2013-05-11 11:45:00,70.1,68.0,29.92,South,191,10.0,15.0,93,0.00,,---,0.00,VWS V14.01,2013-05-11 15:45:00,
2013-05-11 11:50:00,70.2,68.1,29.92,SSW,196,10.0,14.0,93,0.00,,---,0.00,VWS V14.01,2013-05-11 15:50:00,
2013-05-11 11:55:00,70.1,67.7,29.92,SSW,201,13.0,14.0,92,0.00,,---,0.00,VWS V14.01,2013-05-11 15:55:00,
2013-05-11 12:00:00,69.8,67.4,29.92,SSW,204,12.0,13.0,92,0.00,,---,0.00,VWS V14.01,2013-05-11 16:00:00,
2013-05-11 12:05:00,69.8,67.7,29.92,SSW,209,13.0,15.0,93,0.00,,---,0.00,VWS V14.01,2013-05-11 16:05:00,
2013-05-11 12:10:00,69.6,67.5,29.92,SSW,207,13.0,13.0,93,0.00,,---,0.00,VWS V14.01,2013-05-11 16:10:00,
2013-05-11 12:15:00,69.8,67.7,29.92,SSW,206,14.0,15.0,93,0.00,,---,0.00,VWS V14.01,2013-05-11 16:15:00,
2013-05-11 12:20:00,69.7,67.6,29.92,SSW,209,13.0,15.0,93,0.00,,---,0.00,VWS V14.01,2013-05-11 16:20:00,
2013-05-11 12:25:00,69.7,67.6,29.92,SSW,211,17.0,17.0,93,0.00,,---,0.00,VWS V14.01,2013-05-11 16:25:00,
2013-05-11 12:30:00,69.7,67.6,29.92,SW,219,14.0,18.0,93,0.00,,---,0.00,VWS V14.01,2013-05-11 16:30:00,
2013-05-11 12:35:00,69.8,67.7,29.92,SW,218,15.0,17.0,93,0.00,,---,0.00,VWS V14.01,2013-05-11 16:35:00,
2013-05-11 12:40:00,69.8,67.7,29.92,SW,221,15.0,17.0,93,0.00,,---,0.00,VWS V14.01,2013-05-11 16:40:00,
2013-05-11 12:45:00,69.8,67.7,29.92,SW,220,16.0,17.0,93,0.00,,---,0.00,VWS V14.01,2013-05-11 16:45:00,
2013-05-11 12:50:00,69.7,67.6,29.92,SW,223,15.0,18.0,93,0.00,,---,0.00,VWS V14.01,2013-05-11 16:50:00,
2013-05-11 12:55:00,69.7,67.6,29.92,SW,219,18.0,18.0,93,0.00,,---,0.00,VWS V14.01,2013-05-11 16:55:00,
2013-05-11 13:00:00,69.8,67.7,29.92,SW,222,17.0,20.0,93,0.00,,---,0.00,VWS V14.01,2013-05-11 17:00:00,
2013-05-11 13:05:00,69.8,67.4,29.92,SW,220,16.0,18.0,92,0.00,,---,0.00,VWS V14.01,2013-05-11 17:05:00,
2013-05-11 13:10:00,69.9,67.5,29.92,SW,218,18.0,19.0,92,0.00,,---,0.00,VWS V14.01,2013-05-11 17:10:00,
2013-05-11 13:15:00,70.1,67.7,29.92,SW,227,15.0,18.0,92,0.00,,---,0.00,VWS V14.01,2013-05-11 17:15:00,
2013-05-11 13:20:00,70.2,67.8,29.91,SW,225,15.0,18.0,92,0.00,,---,0.00,VWS V14.01,2013-05-11 17:20:00,
2013-05-11 13:25:00,70.3,67.9,29.91,SW,225,14.0,17.0,92,0.00,,---,0.00,VWS V14.01,2013-05-11 17:25:00,
2013-05-11 13:30:00,70.2,67.8,29.91,SW,234,15.0,17.0,92,0.00,,---,0.00,VWS V14.01,2013-05-11 17:30:00,
2013-05-11 13:35:00,70.1,67.7,29.90,SW,227,14.0,17.0,92,0.00,,---,0.00,VWS V14.01,2013-05-11 17:35:00,
2013-05-11 13:40:00,70.0,67.6,29.90,SW,223,16.0,16.0,92,0.00,,---,0.00,VWS V14.01,2013-05-11 17:40:00,
2013-05-11 13:45:00,69.8,67.4,29.89,SW,218,16.0,18.0,92,0.00,,---,0.00,VWS V14.01,2013-05-11 17:45:00,
2013-05-11 13:50:00,69.7,67.3,29.89,SSW,209,15.0,17.0,92,0.00,,---,0.00,VWS V14.01,2013-05-11 17:50:00,
2013-05-11 13:55:00,69.6,67.2,29.88,SSW,207,15.0,17.0,92,0.00,,---,0.00,VWS V14.01,2013-05-11 17:55:00,
2013-05-11 14:00:00,69.7,67.6,29.87,SSW,209,16.0,18.0,93,0.00,,---,0.00,VWS V14.01,2013-05-11 18:00:00,
2013-05-11 14:05:00,69.8,67.7,29.87,SSW,202,17.0,17.0,93,0.00,,---,0.00,VWS V14.01,2013-05-11 18:05:00,
2013-05-11 14:10:00,69.9,67.8,29.87,SSW,211,18.0,20.0,93,0.00,,---,0.00,VWS V14.01,2013-05-11 18:10:00,
2013-05-11 14:15:00,70.1,68.0,29.88,SW,215,19.0,21.0,93,0.00,,---,0.00,VWS V14.01,2013-05-11 18:15:00,
2013-05-11 14:20:00,69.9,67.8,29.88,SW,223,17.0,20.0,93,0.00,,---,0.00,VWS V14.01,2013-05-11 18:20:00,
2013-05-11 14:25:00,70.0,67.9,29.88,SW,214,18.0,22.0,93,0.00,,---,0.00,VWS V14.01,2013-05-11 18:25:00,
2013-05-11 14:30:00,70.1,68.0,29.88,SW,223,18.0,21.0,93,0.00,,---,0.00,VWS V14.01,2013-05-11 18:30:00,
2013-05-11 14:35:00,70.1,67.7,29.88,SW,223,18.0,20.0,92,0.00,,---,0.00,VWS V14.01,2013-05-11 18:35:00,
2013-05-11 14:40:00,70.1,67.7,29.87,SW,227,17.0,20.0,92,0.00,,---,0.00,VWS V14.01,2013-05-11 18:40:00,
2013-05-11 14:45:00,70.0,67.6,29.87,SW,223,17.0,20.0,92,0.00,,---,0.00,VWS V14.01,2013-05-11 18:45:00,
2013-05-11 14:50:00,70.0,67.6,29.87,SW,230,15.0,19.0,92,0.00,,---,0.00,VWS V14.01,2013-05-11 18:50:00,
2013-05-11 14:55:00,70.1,67.7,29.87,SW,229,18.0,19.0,92,0.00,,---,0.00,VWS V14.01,2013-05-11 18:55:00,
2013-05-11 15:00:00,70.1,67.7,29.86,SW,228,17.0,19.0,92,0.00,,---,0.00,VWS V14.01,2013-05-11 19:00:00,
2013-05-11 15:05:00,69.9,67.5,29.86,SW,233,12.0,16.0,92,0.00,,---,0.00,VWS V14.01,2013-05-11 19:05:00,
2013-05-11 15:10:00,69.7,67.3,29.86,SW,226,12.0,16.0,92,0.00,,---,0.00,VWS V14.01,2013-05-11 19:10:00,
2013-05-11 15:15:00,69.5,67.1,29.86,SW,228,12.0,17.0,92,0.00,,---,0.00,VWS V14.01,2013-05-11 19:15:00,
2013-05-11 15:20:00,69.4,67.0,29.86,SW,234,12.0,14.0,92,0.00,,---,0.00,VWS V14.01,2013-05-11 19:20:00,
2013-05-11 15:25:00,69.4,67.3,29.85,WSW,240,12.0,13.0,93,0.00,,---,0.00,VWS V14.01,2013-05-11 19:25:00,
2013-05-11 15:30:00,69.4,67.3,29.85,SW,236,10.0,13.0,93,0.00,,---,0.00,VWS V14.01,2013-05-11 19:30:00,
2013-05-11 15:35:00,69.4,67.3,29.85,SW,227,10.0,14.0,93,0.00,,---,0.00,VWS V14.01,2013-05-11 19:35:00,
2013-05-11 15:40:00,69.4,67.3,29.85,SW,231,12.0,15.0,93,0.00,,---,0.00,VWS V14.01,2013-05-11 19:40:00,
2013-05-11 15:45:00,69.5,67.4,29.84,SW,229,11.0,13.0,93,0.00,,---,0.00,VWS V14.01,2013-05-11 19:45:00,
2013-05-11 15:50:00,69.5,67.4,29.84,SW,226,14.0,14.0,93,0.00,,---,0.00,VWS V14.01,2013-05-11 19:50:00,
2013-05-11 15:55:00,69.5,67.4,29.84,SW,233,13.0,15.0,93,0.00,,---,0.00,VWS V14.01,2013-05-11 19:55:00,
2013-05-11 16:00:00,69.5,67.4,29.84,SW,229,14.0,15.0,93,0.00,,---,0.00,VWS V14.01,2013-05-11 20:00:00,
2013-05-11 16:05:00,69.6,67.5,29.84,SW,227,18.0,18.0,93,0.00,,---,0.00,VWS V14.01,2013-05-11 20:05:00,
2013-05-11 16:10:00,69.7,67.9,29.84,SW,227,17.0,19.0,94,0.00,,---,0.00,VWS V14.01,2013-05-11 20:10:00,
2013-05-11 16:15:00,69.6,67.8,29.84,SW,227,15.0,20.0,94,0.00,,---,0.00,VWS V14.01,2013-05-11 20:15:00,
2013-05-11 16:20:00,69.6,67.8,29.84,SW,228,18.0,20.0,94,0.00,,---,0.00,VWS V14.01,2013-05-11 20:20:00,
2013-05-11 16:25:00,69.7,67.9,29.84,SW,225,15.0,20.0,94,0.00,,---,0.00,VWS V14.01,2013-05-11 20:25:00,
2013-05-11 16:30:00,69.7,67.9,29.84,SW,228,18.0,21.0,94,0.00,,---,0.00,VWS V14.01,2013-05-11 20:30:00,
2013-05-11 16:35:00,69.7,67.9,29.84,SW,225,17.0,20.0,94,0.00,,---,0.00,VWS V14.01,2013-05-11 20:35:00,
2013-05-11 16:40:00,69.8,68.0,29.84,SW,227,14.0,19.0,94,0.00,,---,0.00,VWS V14.01,2013-05-11 20:40:00,
2013-05-11 16:45:00,69.8,67.7,29.84,SW,229,15.0,18.0,93,0.00,,---,0.00,VWS V14.01,2013-05-11 20:45:00,
2013-05-11 16:50:00,69.7,67.6,29.84,SW,230,18.0,19.0,93,0.00,,---,0.00,VWS V14.01,2013-05-11 20:50:00,
2013-05-11 16:55:00,69.7,67.6,29.84,SW,229,15.0,21.0,93,0.00,,---,0.00,VWS V14.01,2013-05-11 20:55:00,
2013-05-11 17:00:00,69.6,67.5,29.84,SW,227,19.0,21.0,93,0.00,,---,0.00,VWS V14.01,2013-05-11 21:00:00,
2013-05-11 17:05:00,69.6,67.5,29.84,SW,231,13.0,20.0,93,0.00,,---,0.00,VWS V14.01,2013-05-11 21:05:00,
2013-05-11 17:10:00,69.5,67.4,29.85,SW,233,14.0,19.0,93,0.00,,---,0.00,VWS V14.01,2013-05-11 21:10:00,
2013-05-11 17:15:00,69.5,67.1,29.85,SW,231,17.0,17.0,92,0.00,,---,0.00,VWS V14.01,2013-05-11 21:15:00,
2013-05-11 17:20:00,69.7,67.3,29.85,SW,233,16.0,18.0,92,0.00,,---,0.00,VWS V14.01,2013-05-11 21:20:00,
2013-05-11 17:25:00,69.7,67.0,29.84,SW,227,20.0,20.0,91,0.00,,---,0.00,VWS V14.01,2013-05-11 21:25:00,
2013-05-11 17:30:00,69.6,66.9,29.84,SW,226,13.0,18.0,91,0.00,,---,0.00,VWS V14.01,2013-05-11 21:30:00,
2013-05-11 17:35:00,69.5,66.8,29.84,SW,224,16.0,18.0,91,0.00,,---,0.00,VWS V14.01,2013-05-11 21:35:00,
2013-05-11 17:40:00,69.4,66.7,29.84,SW,223,16.0,21.0,91,0.00,,---,0.00,VWS V14.01,2013-05-11 21:40:00,
2013-05-11 17:45:00,69.4,66.0,29.84,SW,234,17.0,22.0,89,0.00,,---,0.00,VWS V14.01,2013-05-11 21:45:00,
2013-05-11 17:50:00,69.6,65.9,29.83,SW,226,21.0,22.0,88,0.00,,---,0.00,VWS V14.01,2013-05-11 21:50:00,
2013-05-11 17:55:00,69.8,65.8,29.84,SW,231,21.0,24.0,87,0.00,,---,0.00,VWS V14.01,2013-05-11 21:55:00,
2013-05-11 18:00:00,69.9,65.5,29.83,SW,225,21.0,22.0,86,0.00,,---,0.00,VWS V14.01,2013-05-11 22:00:00,
2013-05-11 18:05:00,69.8,65.1,29.83,SW,222,19.0,22.0,85,0.00,,---,0.00,VWS V14.01,2013-05-11 22:05:00,
2013-05-11 18:10:00,69.8,65.1,29.83,SW,221,18.0,23.0,85,0.00,,---,0.00,VWS V14.01,2013-05-11 22:10:00,
2013-05-11 18:15:00,69.7,65.3,29.83,SW,231,18.0,21.0,86,0.00,,---,0.00,VWS V14.01,2013-05-11 22:15:00,
2013-05-11 18:20:00,69.8,65.4,29.83,SW,225,20.0,22.0,86,0.00,,---,0.00,VWS V14.01,2013-05-11 22:20:00,
2013-05-11 18:25:00,69.5,65.1,29.83,SW,229,20.0,23.0,86,0.00,,---,0.00,VWS V14.01,2013-05-11 22:25:00,
2013-05-11 18:30:00,69.6,65.2,29.82,SW,229,21.0,24.0,86,0.00,,---,0.00,VWS V14.01,2013-05-11 22:30:00,
2013-05-11 18:34:00,69.7,65.3,29.83,SW,225,20.0,22.0,86,0.00,,---,0.00,VWS V14.01,2013-05-11 22:34:00,
2013-05-11 18:40:00,69.8,65.1,29.83,SW,229,19.0,21.0,85,0.00,,---,0.00,VWS V14.01,2013-05-11 22:40:00,
2013-05-11 18:45:00,69.7,65.0,29.83,WSW,238,15.0,19.0,85,0.00,,---,0.00,VWS V14.01,2013-05-11 22:45:00,
2013-05-11 18:50:00,69.7,65.0,29.84,SW,230,17.0,19.0,85,0.00,,---,0.00,VWS V14.01,2013-05-11 22:50:00,
2013-05-11 18:55:00,69.7,65.0,29.83,WSW,240,15.0,17.0,85,0.00,,---,0.00,VWS V14.01,2013-05-11 22:55:00,
2013-05-11 19:00:00,69.6,65.2,29.83,WSW,237,15.0,17.0,86,0.00,,---,0.00,VWS V14.01,2013-05-11 23:00:00,
2013-05-11 19:05:00,69.7,65.0,29.83,SW,236,17.0,20.0,85,0.00,,---,0.00,VWS V14.01,2013-05-11 23:05:00,
2013-05-11 19:10:00,69.7,65.3,29.83,SW,225,22.0,25.0,86,0.00,,---,0.00,VWS V14.01,2013-05-11 23:10:00,
2013-05-11 19:15:00,69.5,65.1,29.83,SW,229,19.0,23.0,86,0.00,,---,0.00,VWS V14.01,2013-05-11 23:15:00,
2013-05-11 19:19:00,69.3,65.3,29.83,SW,223,16.0,20.0,87,0.00,,---,0.00,VWS V14.01,2013-05-11 23:19:00,
2013-05-11 19:24:00,69.1,65.4,29.83,SW,232,16.0,20.0,88,0.00,,---,0.00,VWS V14.01,2013-05-11 23:24:00,
2013-05-11 19:29:00,68.9,65.2,29.83,SW,229,13.0,19.0,88,0.00,,---,0.00,VWS V14.01,2013-05-11 23:29:00,
2013-05-11 19:34:00,68.7,65.3,29.83,SW,225,14.0,17.0,89,0.00,,---,0.00,VWS V14.01,2013-05-11 23:34:00,
2013-05-11 19:39:00,68.6,65.2,29.83,SW,229,18.0,18.0,89,0.00,,---,0.00,VWS V14.01,2013-05-11 23:39:00,
2013-05-11 19:44:00,68.6,65.2,29.83,SW,226,15.0,19.0,89,0.00,,---,0.00,VWS V14.01,2013-05-11 23:44:00,
2013-05-11 19:49:00,68.6,65.2,29.83,WSW,237,21.0,21.0,89,0.00,,---,0.00,VWS V14.01,2013-05-11 23:49:00,
2013-05-11 19:54:00,68.5,65.5,29.83,SW,227,20.0,20.0,90,0.00,,---,0.00,VWS V14.01,2013-05-11 23:54:00,
2013-05-11 19:59:00,68.5,65.5,29.84,SW,228,15.0,19.0,90,0.00,,---,0.00,VWS V14.01,2013-05-11 23:59:00,
2013-05-11 20:04:00,68.5,65.5,29.84,SW,227,17.0,18.0,90,0.00,,---,0.00,VWS V14.01,2013-05-12 00:04:00,
2013-05-11 20:09:00,68.5,65.8,29.83,SW,221,18.0,19.0,91,0.00,,---,0.00,VWS V14.01,2013-05-12 00:09:00,
2013-05-11 20:14:00,68.5,65.8,29.83,SW,227,18.0,19.0,91,0.00,,---,0.00,VWS V14.01,2013-05-12 00:14:00,
2013-05-11 20:19:00,68.6,65.9,29.83,SW,231,13.0,17.0,91,0.00,,---,0.00,VWS V14.01,2013-05-12 00:19:00,
2013-05-11 20:24:00,68.8,66.1,29.84,SW,233,14.0,17.0,91,0.00,,---,0.00,VWS V14.01,2013-05-12 00:24:00,
2013-05-11 20:29:00,69.0,65.9,29.84,WSW,244,17.0,17.0,90,0.00,,---,0.00,VWS V14.01,2013-05-12 00:29:00,
2013-05-11 20:34:00,68.9,65.8,29.84,SW,234,13.0,15.0,90,0.00,,---,0.00,VWS V14.01,2013-05-12 00:34:00,
2013-05-11 20:39:00,69.0,65.9,29.84,WSW,242,15.0,16.0,90,0.00,,---,0.00,VWS V14.01,2013-05-12 00:39:00,
2013-05-11 20:44:00,69.0,65.9,29.84,WSW,244,14.0,16.0,90,0.00,,---,0.00,VWS V14.01,2013-05-12 00:44:00,
2013-05-11 20:49:00,68.9,65.8,29.84,WSW,240,16.0,16.0,90,0.00,,---,0.00,VWS V14.01,2013-05-12 00:49:00,
2013-05-11 20:54:00,69.0,65.9,29.84,WSW,240,16.0,17.0,90,0.00,,---,0.00,VWS V14.01,2013-05-12 00:54:00,
2013-05-11 20:59:00,69.1,66.1,29.84,WSW,244,15.0,19.0,90,0.00,,---,0.00,VWS V14.01,2013-05-12 00:59:00,
2013-05-11 21:04:00,69.1,66.1,29.85,WSW,244,16.0,18.0,90,0.00,,---,0.00,VWS V14.01,2013-05-12 01:04:00,
2013-05-11 21:09:00,69.1,66.1,29.85,WSW,242,15.0,18.0,90,0.00,,---,0.00,VWS V14.01,2013-05-12 01:09:00,
2013-05-11 21:14:00,69.2,66.2,29.85,WSW,238,14.0,16.0,90,0.00,,---,0.00,VWS V14.01,2013-05-12 01:14:00,
2013-05-11 21:19:00,69.1,66.1,29.85,WSW,238,11.0,15.0,90,0.00,,---,0.00,VWS V14.01,2013-05-12 01:19:00,
2013-05-11 21:24:00,69.0,65.9,29.85,WSW,242,13.0,15.0,90,0.00,,---,0.00,VWS V14.01,2013-05-12 01:24:00,
2013-05-11 21:29:00,68.8,65.8,29.85,SW,234,11.0,14.0,90,0.00,,---,0.00,VWS V14.01,2013-05-12 01:29:00,
2013-05-11 21:34:00,68.7,66.0,29.85,SW,236,13.0,15.0,91,0.00,,---,0.00,VWS V14.01,2013-05-12 01:34:00,
2013-05-11 21:39:00,68.6,65.9,29.85,SW,231,13.0,16.0,91,0.00,,---,0.00,VWS V14.01,2013-05-12 01:39:00,
2013-05-11 21:44:00,68.5,65.8,29.85,SW,236,12.0,14.0,91,0.00,,---,0.00,VWS V14.01,2013-05-12 01:44:00,
2013-05-11 21:49:00,68.5,65.8,29.85,SW,232,13.0,14.0,91,0.00,,---,0.00,VWS V14.01,2013-05-12 01:49:00,
2013-05-11 21:54:00,68.5,65.8,29.84,SW,231,13.0,17.0,91,0.00,,---,0.00,VWS V14.01,2013-05-12 01:54:00,
2013-05-11 21:59:00,68.6,65.9,29.84,WSW,237,15.0,16.0,91,0.00,,---,0.00,VWS V14.01,2013-05-12 01:59:00,
2013-05-11 22:04:00,68.6,65.9,29.84,SW,235,14.0,15.0,91,0.00,,---,0.00,VWS V14.01,2013-05-12 02:04:00,
2013-05-11 22:09:00,68.6,65.9,29.84,SW,234,12.0,15.0,91,0.00,,---,0.00,VWS V14.01,2013-05-12 02:09:00,
2013-05-11 22:14:00,68.6,65.9,29.85,WSW,243,14.0,16.0,91,0.00,,---,0.00,VWS V14.01,2013-05-12 02:14:00,
2013-05-11 22:19:00,68.6,65.9,29.85,SW,236,14.0,16.0,91,0.00,,---,0.00,VWS V14.01,2013-05-12 02:19:00,
2013-05-11 22:24:00,68.5,65.8,29.84,WSW,244,11.0,14.0,91,0.00,,---,0.00,VWS V14.01,2013-05-12 02:24:00,
2013-05-11 22:29:00,68.3,65.6,29.84,WSW,243,10.0,13.0,91,0.00,,---,0.00,VWS V14.01,2013-05-12 02:29:00,
2013-05-11 22:34:00,68.3,65.6,29.84,WSW,238,12.0,13.0,91,0.00,,---,0.00,VWS V14.01,2013-05-12 02:34:00,
2013-05-11 22:39:00,68.2,65.8,29.84,WSW,246,15.0,15.0,92,0.00,,---,0.00,VWS V14.01,2013-05-12 02:39:00,
2013-05-11 22:44:00,68.2,65.8,29.85,WSW,246,14.0,15.0,92,0.00,,---,0.00,VWS V14.01,2013-05-12 02:44:00,
2013-05-11 22:49:00,68.1,65.7,29.85,WSW,239,13.0,14.0,92,0.00,,---,0.00,VWS V14.01,2013-05-12 02:49:00,
2013-05-11 22:54:00,68.1,65.7,29.85,WSW,240,12.0,15.0,92,0.00,,---,0.00,VWS V14.01,2013-05-12 02:54:00,
2013-05-11 22:59:00,68.1,65.7,29.85,WSW,245,14.0,15.0,92,0.00,,---,0.00,VWS V14.01,2013-05-12 02:59:00,
2013-05-11 23:04:00,68.1,65.7,29.85,WSW,239,14.0,16.0,92,0.00,,---,0.00,VWS V14.01,2013-05-12 03:04:00,
2013-05-11 23:09:00,68.1,65.7,29.84,WSW,245,16.0,17.0,92,0.00,,---,0.00,VWS V14.01,2013-05-12 03:09:00,
2013-05-11 23:14:00,68.1,65.7,29.84,WSW,242,17.0,17.0,92,0.00,,---,0.00,VWS V14.01,2013-05-12 03:14:00,
2013-05-11 23:19:00,68.1,65.7,29.84,WSW,242,14.0,18.0,92,0.00,,---,0.00,VWS V14.01,2013-05-12 03:19:00,
2013-05-11 23:24:00,68.1,65.7,29.84,WSW,243,16.0,19.0,92,0.00,,---,0.00,VWS V14.01,2013-05-12 03:24:00,
2013-05-11 23:29:00,68.1,65.7,29.84,WSW,241,15.0,15.0,92,0.00,,---,0.00,VWS V14.01,2013-05-12 03:29:00,
2013-05-11 23:34:00,68.1,66.0,29.84,WSW,245,13.0,15.0,93,0.00,,---,0.00,VWS V14.01,2013-05-12 03:34:00,
2013-05-11 23:39:00,68.1,66.0,29.84,WSW,245,12.0,15.0,93,0.00,,---,0.00,VWS V14.01,2013-05-12 03:39:00,
2013-05-11 23:44:00,68.1,66.0,29.84,WSW,242,15.0,16.0,93,0.00,,---,0.00,VWS V14.01,2013-05-12 03:44:00,
2013-05-11 23:49:00,68.0,65.9,29.83,SW,235,14.0,16.0,93,0.00,,---,0.00,VWS V14.01,2013-05-12 03:49:00,
2013-05-11 23:54:00,68.0,65.9,29.84,WSW,246,13.0,16.0,93,0.00,,---,0.00,VWS V14.01,2013-05-12 03:54:00,
2013-05-11 23:59:00,67.9,65.8,29.84,WSW,242,15.0,15.0,93,0.00,,---,0.00,VWS V14.01,2013-05-12 03:59:00,